Year,Month,Day,Hour,Minute,Value (Times are PST for temperature in C)
2018,07,22,00,00,15.20
2018,07,22,00,01,15.10
2018,07,22,00,02,15.10
2018,07,22,00,03,15.10
2018,07,22,00,04,15.10
2018,07,22,00,05,15.10
2018,07,22,00,06,15.10
2018,07,22,00,07,15.10
2018,07,22,00,08,15.00
2018,07,22,00,09,15.00
2018,07,22,00,10,15.00
2018,07,22,00,11,15.00
2018,07,22,00,12,15.00
2018,07,22,00,13,15.00
2018,07,22,00,14,15.00
2018,07,22,00,15,14.90
2018,07,22,00,16,14.90
2018,07,22,00,17,14.90
2018,07,22,00,18,14.90
2018,07,22,00,19,14.90
2018,07,22,00,20,14.90
2018,07,22,00,21,14.80
2018,07,22,00,22,14.80
2018,07,22,00,23,14.80
2018,07,22,00,24,14.80
2018,07,22,00,25,14.80
2018,07,22,00,26,14.80
2018,07,22,00,27,14.80
2018,07,22,00,28,14.80
2018,07,22,00,29,14.80
2018,07,22,00,30,14.80
2018,07,22,00,31,14.80
2018,07,22,00,32,14.80
2018,07,22,00,33,14.80
2018,07,22,00,34,14.80
2018,07,22,00,35,14.70
2018,07,22,00,36,14.70
2018,07,22,00,37,14.70
2018,07,22,00,38,14.70
2018,07,22,00,39,14.70
2018,07,22,00,40,14.60
2018,07,22,00,41,14.60
2018,07,22,00,42,14.60
2018,07,22,00,43,14.60
2018,07,22,00,44,14.60
2018,07,22,00,45,14.60
2018,07,22,00,46,14.60
2018,07,22,00,47,14.50
2018,07,22,00,48,14.50
2018,07,22,00,49,14.50
2018,07,22,00,50,14.50
2018,07,22,00,51,14.40
2018,07,22,00,52,14.40
2018,07,22,00,53,14.40
2018,07,22,00,54,14.30
2018,07,22,00,55,14.30
2018,07,22,00,56,14.30
2018,07,22,00,57,14.20
2018,07,22,00,58,14.20
2018,07,22,00,59,14.20
2018,07,22,01,00,14.20
2018,07,22,01,01,14.20
2018,07,22,01,02,14.20
2018,07,22,01,03,14.20
2018,07,22,01,04,14.10
2018,07,22,01,05,14.10
2018,07,22,01,06,14.10
2018,07,22,01,07,14.10
2018,07,22,01,08,14.10
2018,07,22,01,09,14.10
2018,07,22,01,10,14.00
2018,07,22,01,11,14.00
2018,07,22,01,12,14.00
2018,07,22,01,13,14.00
2018,07,22,01,14,13.90
2018,07,22,01,15,13.90
2018,07,22,01,16,13.90
2018,07,22,01,17,13.80
2018,07,22,01,18,13.80
2018,07,22,01,19,13.80
2018,07,22,01,20,13.80
2018,07,22,01,21,13.80
2018,07,22,01,22,13.80
2018,07,22,01,23,13.80
2018,07,22,01,24,13.80
2018,07,22,01,25,13.70
2018,07,22,01,26,13.70
2018,07,22,01,27,13.70
2018,07,22,01,28,13.70
2018,07,22,01,29,13.70
2018,07,22,01,30,13.70
2018,07,22,01,31,13.60
2018,07,22,01,32,13.60
2018,07,22,01,33,13.60
2018,07,22,01,34,13.60
2018,07,22,01,35,13.60
2018,07,22,01,36,13.60
2018,07,22,01,37,13.60
2018,07,22,01,38,13.60
2018,07,22,01,39,13.50
2018,07,22,01,40,13.50
2018,07,22,01,41,13.50
2018,07,22,01,42,13.40
2018,07,22,01,43,13.40
2018,07,22,01,44,13.40
2018,07,22,01,45,13.40
2018,07,22,01,46,13.30
2018,07,22,01,47,13.30
2018,07,22,01,48,13.30
2018,07,22,01,49,13.30
2018,07,22,01,50,13.30
2018,07,22,01,51,13.30
2018,07,22,01,52,13.30
2018,07,22,01,53,13.30
2018,07,22,01,54,13.30
2018,07,22,01,55,13.30
2018,07,22,01,56,13.30
2018,07,22,01,57,13.30
2018,07,22,01,58,13.30
2018,07,22,01,59,13.30
2018,07,22,02,00,13.30
2018,07,22,02,01,13.30
2018,07,22,02,02,13.30
2018,07,22,02,03,13.30
2018,07,22,02,04,13.30
2018,07,22,02,05,13.30
2018,07,22,02,06,13.20
2018,07,22,02,07,13.20
2018,07,22,02,08,13.20
2018,07,22,02,09,13.20
2018,07,22,02,10,13.20
2018,07,22,02,11,13.20
2018,07,22,02,12,13.20
2018,07,22,02,13,13.20
2018,07,22,02,14,13.20
2018,07,22,02,15,13.20
2018,07,22,02,16,13.20
2018,07,22,02,17,13.20
2018,07,22,02,18,13.20
2018,07,22,02,19,13.20
2018,07,22,02,20,13.20
2018,07,22,02,21,13.10
2018,07,22,02,22,13.10
2018,07,22,02,23,13.10
2018,07,22,02,24,13.10
2018,07,22,02,25,13.10
2018,07,22,02,26,13.10
2018,07,22,02,27,13.10
2018,07,22,02,28,13.00
2018,07,22,02,29,13.10
2018,07,22,02,30,13.10
2018,07,22,02,31,13.10
2018,07,22,02,32,13.10
2018,07,22,02,33,13.10
2018,07,22,02,34,13.10
2018,07,22,02,35,13.10
2018,07,22,02,36,13.10
2018,07,22,02,37,13.10
2018,07,22,02,38,13.10
2018,07,22,02,39,13.10
2018,07,22,02,40,13.10
2018,07,22,02,41,13.10
2018,07,22,02,42,13.10
2018,07,22,02,43,13.10
2018,07,22,02,44,13.10
2018,07,22,02,45,13.10
2018,07,22,02,46,13.20
2018,07,22,02,47,13.20
2018,07,22,02,48,13.20
2018,07,22,02,49,13.20
2018,07,22,02,50,13.20
2018,07,22,02,51,13.20
2018,07,22,02,52,13.20
2018,07,22,02,53,13.20
2018,07,22,02,54,13.20
2018,07,22,02,55,13.20
2018,07,22,02,56,13.20
2018,07,22,02,57,13.20
2018,07,22,02,58,13.20
2018,07,22,02,59,13.20
2018,07,22,03,00,13.20
2018,07,22,03,01,13.20
2018,07,22,03,02,13.20
2018,07,22,03,03,13.20
2018,07,22,03,04,13.20
2018,07,22,03,05,13.30
2018,07,22,03,06,13.30
2018,07,22,03,07,13.30
2018,07,22,03,08,13.30
2018,07,22,03,09,13.30
2018,07,22,03,10,13.30
2018,07,22,03,11,13.30
2018,07,22,03,12,13.30
2018,07,22,03,13,13.30
2018,07,22,03,14,13.30
2018,07,22,03,15,13.30
2018,07,22,03,16,13.30
2018,07,22,03,17,13.30
2018,07,22,03,18,13.30
2018,07,22,03,19,13.30
2018,07,22,03,20,13.30
2018,07,22,03,21,13.30
2018,07,22,03,22,13.30
2018,07,22,03,23,13.30
2018,07,22,03,24,13.30
2018,07,22,03,25,13.30
2018,07,22,03,26,13.30
2018,07,22,03,27,13.30
2018,07,22,03,28,13.30
2018,07,22,03,29,13.30
2018,07,22,03,30,13.30
2018,07,22,03,31,13.30
2018,07,22,03,32,13.30
2018,07,22,03,33,13.30
2018,07,22,03,34,13.30
2018,07,22,03,35,13.30
2018,07,22,03,36,13.30
2018,07,22,03,37,13.30
2018,07,22,03,38,13.20
2018,07,22,03,39,13.20
2018,07,22,03,40,13.20
2018,07,22,03,41,13.20
2018,07,22,03,42,13.10
2018,07,22,03,43,13.10
2018,07,22,03,44,13.10
2018,07,22,03,45,13.00
2018,07,22,03,46,13.00
2018,07,22,03,47,13.00
2018,07,22,03,48,13.00
2018,07,22,03,49,13.00
2018,07,22,03,50,13.00
2018,07,22,03,51,13.00
2018,07,22,03,52,13.00
2018,07,22,03,53,13.00
2018,07,22,03,54,12.90
2018,07,22,03,55,12.90
2018,07,22,03,56,12.90
2018,07,22,03,57,12.90
2018,07,22,03,58,12.90
2018,07,22,03,59,12.80
2018,07,22,04,00,12.80
2018,07,22,04,01,12.80
2018,07,22,04,02,12.80
2018,07,22,04,03,12.80
2018,07,22,04,04,12.80
2018,07,22,04,05,12.80
2018,07,22,04,06,12.70
2018,07,22,04,07,12.70
2018,07,22,04,08,12.70
2018,07,22,04,09,12.70
2018,07,22,04,10,12.60
2018,07,22,04,11,12.60
2018,07,22,04,12,12.60
2018,07,22,04,13,12.60
2018,07,22,04,14,12.60
2018,07,22,04,15,12.50
2018,07,22,04,16,12.50
2018,07,22,04,17,12.50
2018,07,22,04,18,12.50
2018,07,22,04,19,12.50
2018,07,22,04,20,12.50
2018,07,22,04,21,12.40
2018,07,22,04,22,12.40
2018,07,22,04,23,12.40
2018,07,22,04,24,12.40
2018,07,22,04,25,12.40
2018,07,22,04,26,12.30
2018,07,22,04,27,12.30
2018,07,22,04,28,12.30
2018,07,22,04,29,12.30
2018,07,22,04,30,12.30
2018,07,22,04,31,12.30
2018,07,22,04,32,12.30
2018,07,22,04,33,12.30
2018,07,22,04,34,12.30
2018,07,22,04,35,12.30
2018,07,22,04,36,12.30
2018,07,22,04,37,12.30
2018,07,22,04,38,12.30
2018,07,22,04,39,12.30
2018,07,22,04,40,12.30
2018,07,22,04,41,12.30
2018,07,22,04,42,12.30
2018,07,22,04,43,12.30
2018,07,22,04,44,12.20
2018,07,22,04,45,12.20
2018,07,22,04,46,12.20
2018,07,22,04,47,12.20
2018,07,22,04,48,12.10
2018,07,22,04,49,12.10
2018,07,22,04,50,12.10
2018,07,22,04,51,12.10
2018,07,22,04,52,12.10
2018,07,22,04,53,12.10
2018,07,22,04,54,12.00
2018,07,22,04,55,12.00
2018,07,22,04,56,12.00
2018,07,22,04,57,12.00
2018,07,22,04,58,12.00
2018,07,22,04,59,12.00
2018,07,22,05,00,12.00
2018,07,22,05,01,12.00
2018,07,22,05,02,12.00
2018,07,22,05,03,12.00
2018,07,22,05,04,12.00
2018,07,22,05,05,12.00
2018,07,22,05,06,12.00
2018,07,22,05,07,11.90
2018,07,22,05,08,11.90
2018,07,22,05,09,11.90
2018,07,22,05,10,11.90
2018,07,22,05,11,11.90
2018,07,22,05,12,11.90
2018,07,22,05,13,11.90
2018,07,22,05,14,11.90
2018,07,22,05,15,11.90
2018,07,22,05,16,11.90
2018,07,22,05,17,11.90
2018,07,22,05,18,11.90
2018,07,22,05,19,11.90
2018,07,22,05,20,11.80
2018,07,22,05,21,11.80
2018,07,22,05,22,11.80
2018,07,22,05,23,11.80
2018,07,22,05,24,11.80
2018,07,22,05,25,11.80
2018,07,22,05,26,11.80
2018,07,22,05,27,11.80
2018,07,22,05,28,11.80
2018,07,22,05,29,11.80
2018,07,22,05,30,11.80
2018,07,22,05,31,11.80
2018,07,22,05,32,11.80
2018,07,22,05,33,11.80
2018,07,22,05,34,11.80
2018,07,22,05,35,11.80
2018,07,22,05,36,11.80
2018,07,22,05,37,11.80
2018,07,22,05,38,11.80
2018,07,22,05,39,11.80
2018,07,22,05,40,11.80
2018,07,22,05,41,11.80
2018,07,22,05,42,11.80
2018,07,22,05,43,11.70
2018,07,22,05,44,11.70
2018,07,22,05,45,11.70
2018,07,22,05,46,11.70
2018,07,22,05,47,11.70
2018,07,22,05,48,11.60
2018,07,22,05,49,11.60
2018,07,22,05,50,11.60
2018,07,22,05,51,11.60
2018,07,22,05,52,11.60
2018,07,22,05,53,11.60
2018,07,22,05,54,11.60
2018,07,22,05,55,11.60
2018,07,22,05,56,11.60
2018,07,22,05,57,11.60
2018,07,22,05,58,11.60
2018,07,22,05,59,11.60
2018,07,22,06,00,11.60
2018,07,22,06,01,11.60
2018,07,22,06,02,11.60
2018,07,22,06,03,11.60
2018,07,22,06,04,11.60
2018,07,22,06,05,11.60
2018,07,22,06,06,11.60
2018,07,22,06,07,11.60
2018,07,22,06,08,11.60
2018,07,22,06,09,11.60
2018,07,22,06,10,11.60
2018,07,22,06,11,11.60
2018,07,22,06,12,11.60
2018,07,22,06,13,11.60
2018,07,22,06,14,11.60
2018,07,22,06,15,11.60
2018,07,22,06,16,11.60
2018,07,22,06,17,11.60
2018,07,22,06,18,11.60
2018,07,22,06,19,11.70
2018,07,22,06,20,11.70
2018,07,22,06,21,11.70
2018,07,22,06,22,11.70
2018,07,22,06,23,11.80
2018,07,22,06,24,11.80
2018,07,22,06,25,11.80
2018,07,22,06,26,11.80
2018,07,22,06,27,11.80
2018,07,22,06,28,11.80
2018,07,22,06,29,11.80
2018,07,22,06,30,11.80
2018,07,22,06,31,11.90
2018,07,22,06,32,11.90
2018,07,22,06,33,12.00
2018,07,22,06,34,12.00
2018,07,22,06,35,12.10
2018,07,22,06,36,12.10
2018,07,22,06,37,12.10
2018,07,22,06,38,12.20
2018,07,22,06,39,12.20
2018,07,22,06,40,12.20
2018,07,22,06,41,12.30
2018,07,22,06,42,12.30
2018,07,22,06,43,12.30
2018,07,22,06,44,12.40
2018,07,22,06,45,12.50
2018,07,22,06,46,12.60
2018,07,22,06,47,12.70
2018,07,22,06,48,12.80
2018,07,22,06,49,12.80
2018,07,22,06,50,12.80
2018,07,22,06,51,12.90
2018,07,22,06,52,13.00
2018,07,22,06,53,13.00
2018,07,22,06,54,13.10
2018,07,22,06,55,13.20
2018,07,22,06,56,13.30
2018,07,22,06,57,13.30
2018,07,22,06,58,13.40
2018,07,22,06,59,13.50
2018,07,22,07,00,13.60
2018,07,22,07,01,13.60
2018,07,22,07,02,13.70
2018,07,22,07,03,13.70
2018,07,22,07,04,13.80
2018,07,22,07,05,13.80
2018,07,22,07,06,13.90
2018,07,22,07,07,14.00
2018,07,22,07,08,14.00
2018,07,22,07,09,14.10
2018,07,22,07,10,14.20
2018,07,22,07,11,14.20
2018,07,22,07,12,14.30
2018,07,22,07,13,14.40
2018,07,22,07,14,14.50
2018,07,22,07,15,14.60
2018,07,22,07,16,14.70
2018,07,22,07,17,14.80
2018,07,22,07,18,14.80
2018,07,22,07,19,14.80
2018,07,22,07,20,14.90
2018,07,22,07,21,15.00
2018,07,22,07,22,15.00
2018,07,22,07,23,15.10
2018,07,22,07,24,15.20
2018,07,22,07,25,15.30
2018,07,22,07,26,15.40
2018,07,22,07,27,15.50
2018,07,22,07,28,15.60
2018,07,22,07,29,15.70
2018,07,22,07,30,15.80
2018,07,22,07,31,15.80
2018,07,22,07,32,15.90
2018,07,22,07,33,16.00
2018,07,22,07,34,16.10
2018,07,22,07,35,16.30
2018,07,22,07,36,16.40
2018,07,22,07,37,16.50
2018,07,22,07,38,16.70
2018,07,22,07,39,16.80
2018,07,22,07,40,16.90
2018,07,22,07,41,17.00
2018,07,22,07,42,17.20
2018,07,22,07,43,17.30
2018,07,22,07,44,17.40
2018,07,22,07,45,17.50
2018,07,22,07,46,17.70
2018,07,22,07,47,17.70
2018,07,22,07,48,17.90
2018,07,22,07,49,17.90
2018,07,22,07,50,18.00
2018,07,22,07,51,18.10
2018,07,22,07,52,18.20
2018,07,22,07,53,18.20
2018,07,22,07,54,18.20
2018,07,22,07,55,18.20
2018,07,22,07,56,18.20
2018,07,22,07,57,18.20
2018,07,22,07,58,18.10
2018,07,22,07,59,18.10
2018,07,22,08,00,18.10
2018,07,22,08,01,18.10
2018,07,22,08,02,18.10
2018,07,22,08,03,18.10
2018,07,22,08,04,17.90
2018,07,22,08,05,17.90
2018,07,22,08,06,17.90
2018,07,22,08,07,17.90
2018,07,22,08,08,17.90
2018,07,22,08,09,17.90
2018,07,22,08,10,17.90
2018,07,22,08,11,17.90
2018,07,22,08,12,17.90
2018,07,22,08,13,17.90
2018,07,22,08,14,17.90
2018,07,22,08,15,17.90
2018,07,22,08,16,18.00
2018,07,22,08,17,18.10
2018,07,22,08,18,18.10
2018,07,22,08,19,18.10
2018,07,22,08,20,18.10
2018,07,22,08,21,18.10
2018,07,22,08,22,18.20
2018,07,22,08,23,18.20
2018,07,22,08,24,18.20
2018,07,22,08,25,18.20
2018,07,22,08,26,18.20
2018,07,22,08,27,18.20
2018,07,22,08,28,18.20
2018,07,22,08,29,18.20
2018,07,22,08,30,18.20
2018,07,22,08,31,18.20
2018,07,22,08,32,18.30
2018,07,22,08,33,18.30
2018,07,22,08,34,18.40
2018,07,22,08,35,18.40
2018,07,22,08,36,18.40
2018,07,22,08,37,18.40
2018,07,22,08,38,18.40
2018,07,22,08,39,18.50
2018,07,22,08,40,18.50
2018,07,22,08,41,18.50
2018,07,22,08,42,18.60
2018,07,22,08,43,18.60
2018,07,22,08,44,18.60
2018,07,22,08,45,18.60
2018,07,22,08,46,18.60
2018,07,22,08,47,18.60
2018,07,22,08,48,18.60
2018,07,22,08,49,18.60
2018,07,22,08,50,18.60
2018,07,22,08,51,18.60
2018,07,22,08,52,18.60
2018,07,22,08,53,18.60
2018,07,22,08,54,18.60
2018,07,22,08,55,18.60
2018,07,22,08,56,18.60
2018,07,22,08,57,18.60
2018,07,22,08,58,18.50
2018,07,22,08,59,18.50
2018,07,22,09,00,18.50
2018,07,22,09,01,18.50
2018,07,22,09,02,18.50
2018,07,22,09,03,18.50
2018,07,22,09,04,18.50
2018,07,22,09,05,18.50
2018,07,22,09,06,18.50
2018,07,22,09,07,18.50
2018,07,22,09,08,18.50
2018,07,22,09,09,18.50
2018,07,22,09,10,18.50
2018,07,22,09,11,18.60
2018,07,22,09,12,18.60
2018,07,22,09,13,18.60
2018,07,22,09,14,18.60
2018,07,22,09,15,18.60
2018,07,22,09,16,18.60
2018,07,22,09,17,18.60
2018,07,22,09,18,18.60
2018,07,22,09,19,18.60
2018,07,22,09,20,18.60
2018,07,22,09,21,18.70
2018,07,22,09,22,18.70
2018,07,22,09,23,18.70
2018,07,22,09,24,18.70
2018,07,22,09,25,18.70
2018,07,22,09,26,18.70
2018,07,22,09,27,18.70
2018,07,22,09,28,18.80
2018,07,22,09,29,18.80
2018,07,22,09,30,18.80
2018,07,22,09,31,18.80
2018,07,22,09,32,18.80
2018,07,22,09,33,18.80
2018,07,22,09,34,18.80
2018,07,22,09,35,18.90
2018,07,22,09,36,18.90
2018,07,22,09,37,18.90
2018,07,22,09,38,18.90
2018,07,22,09,39,18.90
2018,07,22,09,40,19.00
2018,07,22,09,41,19.10
2018,07,22,09,42,19.10
2018,07,22,09,43,19.10
2018,07,22,09,44,19.10
2018,07,22,09,45,19.10
2018,07,22,09,46,19.10
2018,07,22,09,47,19.10
2018,07,22,09,48,19.10
2018,07,22,09,49,19.20
2018,07,22,09,50,19.20
2018,07,22,09,51,19.20
2018,07,22,09,52,19.20
2018,07,22,09,53,19.20
2018,07,22,09,54,19.30
2018,07,22,09,55,19.40
2018,07,22,09,56,19.40
2018,07,22,09,57,19.50
2018,07,22,09,58,19.50
2018,07,22,09,59,19.50
2018,07,22,10,00,19.50
2018,07,22,10,01,19.40
2018,07,22,10,02,19.40
2018,07,22,10,03,19.30
2018,07,22,10,04,19.20
2018,07,22,10,05,19.10
2018,07,22,10,06,19.10
2018,07,22,10,07,19.10
2018,07,22,10,08,19.10
2018,07,22,10,09,19.10
2018,07,22,10,10,19.20
2018,07,22,10,11,19.30
2018,07,22,10,12,19.40
2018,07,22,10,13,19.50
2018,07,22,10,14,19.60
2018,07,22,10,15,19.70
2018,07,22,10,16,19.70
2018,07,22,10,17,19.70
2018,07,22,10,18,19.70
2018,07,22,10,19,19.70
2018,07,22,10,20,19.70
2018,07,22,10,21,19.70
2018,07,22,10,22,19.80
2018,07,22,10,23,19.80
2018,07,22,10,24,19.90
2018,07,22,10,25,19.90
2018,07,22,10,26,19.90
2018,07,22,10,27,19.90
2018,07,22,10,28,19.90
2018,07,22,10,29,19.80
2018,07,22,10,30,19.80
2018,07,22,10,31,19.80
2018,07,22,10,32,19.70
2018,07,22,10,33,19.70
2018,07,22,10,34,19.70
2018,07,22,10,35,19.70
2018,07,22,10,36,19.70
2018,07,22,10,37,19.70
2018,07,22,10,38,19.70
2018,07,22,10,39,19.70
2018,07,22,10,40,19.70
2018,07,22,10,41,19.80
2018,07,22,10,42,19.80
2018,07,22,10,43,19.90
2018,07,22,10,44,19.90
2018,07,22,10,45,19.90
2018,07,22,10,46,20.00
2018,07,22,10,47,20.10
2018,07,22,10,48,20.20
2018,07,22,10,49,20.20
2018,07,22,10,50,20.30
2018,07,22,10,51,20.30
2018,07,22,10,52,20.30
2018,07,22,10,53,20.30
2018,07,22,10,54,20.30
2018,07,22,10,55,20.30
2018,07,22,10,56,20.40
2018,07,22,10,57,20.40
2018,07,22,10,58,20.50
2018,07,22,10,59,20.60
2018,07,22,11,00,20.70
2018,07,22,11,01,20.80
2018,07,22,11,02,20.90
2018,07,22,11,03,21.00
2018,07,22,11,04,21.00
2018,07,22,11,05,21.10
2018,07,22,11,06,21.10
2018,07,22,11,07,21.10
2018,07,22,11,08,21.10
2018,07,22,11,09,21.10
2018,07,22,11,10,21.10
2018,07,22,11,11,21.20
2018,07,22,11,12,21.20
2018,07,22,11,13,21.20
2018,07,22,11,14,21.10
2018,07,22,11,15,21.10
2018,07,22,11,16,21.00
2018,07,22,11,17,21.10
2018,07,22,11,18,21.10
2018,07,22,11,19,21.10
2018,07,22,11,20,21.10
2018,07,22,11,21,21.10
2018,07,22,11,22,21.10
2018,07,22,11,23,21.10
2018,07,22,11,24,21.20
2018,07,22,11,25,21.20
2018,07,22,11,26,21.20
2018,07,22,11,27,21.30
2018,07,22,11,28,21.30
2018,07,22,11,29,21.30
2018,07,22,11,30,21.30
2018,07,22,11,31,21.30
2018,07,22,11,32,21.30
2018,07,22,11,33,21.30
2018,07,22,11,34,21.40
2018,07,22,11,35,21.40
2018,07,22,11,36,21.40
2018,07,22,11,37,21.30
2018,07,22,11,38,21.30
2018,07,22,11,39,21.30
2018,07,22,11,40,21.40
2018,07,22,11,41,21.40
2018,07,22,11,42,21.40
2018,07,22,11,43,21.30
2018,07,22,11,44,21.30
2018,07,22,11,45,21.30
2018,07,22,11,46,21.30
2018,07,22,11,47,21.30
2018,07,22,11,48,21.40
2018,07,22,11,49,21.50
2018,07,22,11,50,21.60
2018,07,22,11,51,21.50
2018,07,22,11,52,21.40
2018,07,22,11,53,21.40
2018,07,22,11,54,21.40
2018,07,22,11,55,21.30
2018,07,22,11,56,21.30
2018,07,22,11,57,21.30
2018,07,22,11,58,21.30
2018,07,22,11,59,21.40
2018,07,22,12,00,21.40
2018,07,22,12,01,21.50
2018,07,22,12,02,21.60
2018,07,22,12,03,21.60
2018,07,22,12,04,21.60
2018,07,22,12,05,21.60
2018,07,22,12,06,21.60
2018,07,22,12,07,21.60
2018,07,22,12,08,21.60
2018,07,22,12,09,21.70
2018,07,22,12,10,21.80
2018,07,22,12,11,21.90
2018,07,22,12,12,21.90
2018,07,22,12,13,21.90
2018,07,22,12,14,21.90
2018,07,22,12,15,22.00
2018,07,22,12,16,22.00
2018,07,22,12,17,22.10
2018,07,22,12,18,22.10
2018,07,22,12,19,22.20
2018,07,22,12,20,22.20
2018,07,22,12,21,22.30
2018,07,22,12,22,22.40
2018,07,22,12,23,22.50
2018,07,22,12,24,22.60
2018,07,22,12,25,22.60
2018,07,22,12,26,22.80
2018,07,22,12,27,22.90
2018,07,22,12,28,22.90
2018,07,22,12,29,22.90
2018,07,22,12,30,22.90
2018,07,22,12,31,22.90
2018,07,22,12,32,22.90
2018,07,22,12,33,22.90
2018,07,22,12,34,22.90
2018,07,22,12,35,22.90
2018,07,22,12,36,22.90
2018,07,22,12,37,22.90
2018,07,22,12,38,22.90
2018,07,22,12,39,23.00
2018,07,22,12,40,23.10
2018,07,22,12,41,23.00
2018,07,22,12,42,22.90
2018,07,22,12,43,22.90
2018,07,22,12,44,22.90
2018,07,22,12,45,22.90
2018,07,22,12,46,22.90
2018,07,22,12,47,22.90
2018,07,22,12,48,22.90
2018,07,22,12,49,22.90
2018,07,22,12,50,22.90
2018,07,22,12,51,22.90
2018,07,22,12,52,22.90
2018,07,22,12,53,22.90
2018,07,22,12,54,22.90
2018,07,22,12,55,22.90
2018,07,22,12,56,22.90
2018,07,22,12,57,22.80
2018,07,22,12,58,22.80
2018,07,22,12,59,22.80
2018,07,22,13,00,22.80
2018,07,22,13,01,22.80
2018,07,22,13,02,22.90
2018,07,22,13,03,22.90
2018,07,22,13,04,22.90
2018,07,22,13,05,22.90
2018,07,22,13,06,22.90
2018,07,22,13,07,22.90
2018,07,22,13,08,22.90
2018,07,22,13,09,23.00
2018,07,22,13,10,23.10
2018,07,22,13,11,23.10
2018,07,22,13,12,23.20
2018,07,22,13,13,23.20
2018,07,22,13,14,23.30
2018,07,22,13,15,23.20
2018,07,22,13,16,23.20
2018,07,22,13,17,23.10
2018,07,22,13,18,23.10
2018,07,22,13,19,23.10
2018,07,22,13,20,23.10
2018,07,22,13,21,23.10
2018,07,22,13,22,23.20
2018,07,22,13,23,23.30
2018,07,22,13,24,23.30
2018,07,22,13,25,23.30
2018,07,22,13,26,23.30
2018,07,22,13,27,23.40
2018,07,22,13,28,23.40
2018,07,22,13,29,23.50
2018,07,22,13,30,23.60
2018,07,22,13,31,23.60
2018,07,22,13,32,23.70
2018,07,22,13,33,23.70
2018,07,22,13,34,23.70
2018,07,22,13,35,23.70
2018,07,22,13,36,23.70
2018,07,22,13,37,23.60
2018,07,22,13,38,23.60
2018,07,22,13,39,23.50
2018,07,22,13,40,23.40
2018,07,22,13,41,23.40
2018,07,22,13,42,23.40
2018,07,22,13,43,23.40
2018,07,22,13,44,23.30
2018,07,22,13,45,23.30
2018,07,22,13,46,23.30
2018,07,22,13,47,23.30
2018,07,22,13,48,23.30
2018,07,22,13,49,23.30
2018,07,22,13,50,23.30
2018,07,22,13,51,23.30
2018,07,22,13,52,23.30
2018,07,22,13,53,23.40
2018,07,22,13,54,23.40
2018,07,22,13,55,23.40
2018,07,22,13,56,23.40
2018,07,22,13,57,23.40
2018,07,22,13,58,23.40
2018,07,22,13,59,23.40
2018,07,22,14,00,23.40
2018,07,22,14,01,23.50
2018,07,22,14,02,23.60
2018,07,22,14,03,23.70
2018,07,22,14,04,23.90
2018,07,22,14,05,24.00
2018,07,22,14,06,24.10
2018,07,22,14,07,24.20
2018,07,22,14,08,24.40
2018,07,22,14,09,24.50
2018,07,22,14,10,24.50
2018,07,22,14,11,24.60
2018,07,22,14,12,24.60
2018,07,22,14,13,24.60
2018,07,22,14,14,24.60
2018,07,22,14,15,24.70
2018,07,22,14,16,24.80
2018,07,22,14,17,24.90
2018,07,22,14,18,24.90
2018,07,22,14,19,24.90
2018,07,22,14,20,24.90
2018,07,22,14,21,24.80
2018,07,22,14,22,24.80
2018,07,22,14,23,24.70
2018,07,22,14,24,24.70
2018,07,22,14,25,24.70
2018,07,22,14,26,24.80
2018,07,22,14,27,24.90
2018,07,22,14,28,24.90
2018,07,22,14,29,24.90
2018,07,22,14,30,24.90
2018,07,22,14,31,24.80
2018,07,22,14,32,24.80
2018,07,22,14,33,24.90
2018,07,22,14,34,24.90
2018,07,22,14,35,24.80
2018,07,22,14,36,24.70
2018,07,22,14,37,24.60
2018,07,22,14,38,24.60
2018,07,22,14,39,24.50
2018,07,22,14,40,24.50
2018,07,22,14,41,24.60
2018,07,22,14,42,24.70
2018,07,22,14,43,24.70
2018,07,22,14,44,24.70
2018,07,22,14,45,24.70
2018,07,22,14,46,24.60
2018,07,22,14,47,24.60
2018,07,22,14,48,24.60
2018,07,22,14,49,24.60
2018,07,22,14,50,24.70
2018,07,22,14,51,24.70
2018,07,22,14,52,24.80
2018,07,22,14,53,24.80
2018,07,22,14,54,24.80
2018,07,22,14,55,24.90
2018,07,22,14,56,24.90
2018,07,22,14,57,25.00
2018,07,22,14,58,25.00
2018,07,22,14,59,25.10
2018,07,22,15,00,25.10
2018,07,22,15,01,25.20
2018,07,22,15,02,25.20
2018,07,22,15,03,25.20
2018,07,22,15,04,25.30
2018,07,22,15,05,25.30
2018,07,22,15,06,25.40
2018,07,22,15,07,25.40
2018,07,22,15,08,25.30
2018,07,22,15,09,25.30
2018,07,22,15,10,25.20
2018,07,22,15,11,25.20
2018,07,22,15,12,25.20
2018,07,22,15,13,25.20
2018,07,22,15,14,25.10
2018,07,22,15,15,25.10
2018,07,22,15,16,25.00
2018,07,22,15,17,25.00
2018,07,22,15,18,25.00
2018,07,22,15,19,24.90
2018,07,22,15,20,24.90
2018,07,22,15,21,24.90
2018,07,22,15,22,24.90
2018,07,22,15,23,24.90
2018,07,22,15,24,24.90
2018,07,22,15,25,24.90
2018,07,22,15,26,24.90
2018,07,22,15,27,25.00
2018,07,22,15,28,25.10
2018,07,22,15,29,25.10
2018,07,22,15,30,25.20
2018,07,22,15,31,25.30
2018,07,22,15,32,25.30
2018,07,22,15,33,25.30
2018,07,22,15,34,25.40
2018,07,22,15,35,25.50
2018,07,22,15,36,25.50
2018,07,22,15,37,25.60
2018,07,22,15,38,25.60
2018,07,22,15,39,25.60
2018,07,22,15,40,25.60
2018,07,22,15,41,25.60
2018,07,22,15,42,25.70
2018,07,22,15,43,25.70
2018,07,22,15,44,25.70
2018,07,22,15,45,25.80
2018,07,22,15,46,25.90
2018,07,22,15,47,26.00
2018,07,22,15,48,26.10
2018,07,22,15,49,26.10
2018,07,22,15,50,26.20
2018,07,22,15,51,26.20
2018,07,22,15,52,26.30
2018,07,22,15,53,26.30
2018,07,22,15,54,26.40
2018,07,22,15,55,26.40
2018,07,22,15,56,26.60
2018,07,22,15,57,26.40
2018,07,22,15,58,26.40
2018,07,22,15,59,26.40
2018,07,22,16,00,26.40
2018,07,22,16,01,26.40
2018,07,22,16,02,26.40
2018,07,22,16,03,26.40
2018,07,22,16,04,26.40
2018,07,22,16,05,26.40
2018,07,22,16,06,26.40
2018,07,22,16,07,26.40
2018,07,22,16,08,26.50
2018,07,22,16,09,26.60
2018,07,22,16,10,26.60
2018,07,22,16,11,26.60
2018,07,22,16,12,26.60
2018,07,22,16,13,26.60
2018,07,22,16,14,26.60
2018,07,22,16,15,26.60
2018,07,22,16,16,26.60
2018,07,22,16,17,26.60
2018,07,22,16,18,26.60
2018,07,22,16,19,26.60
2018,07,22,16,20,26.60
2018,07,22,16,21,26.40
2018,07,22,16,22,26.40
2018,07,22,16,23,26.30
2018,07,22,16,24,26.30
2018,07,22,16,25,26.20
2018,07,22,16,26,26.20
2018,07,22,16,27,26.20
2018,07,22,16,28,26.20
2018,07,22,16,29,26.30
2018,07,22,16,30,26.30
2018,07,22,16,31,26.30
2018,07,22,16,32,26.30
2018,07,22,16,33,26.30
2018,07,22,16,34,26.20
2018,07,22,16,35,26.20
2018,07,22,16,36,26.20
2018,07,22,16,37,26.20
2018,07,22,16,38,26.20
2018,07,22,16,39,26.20
2018,07,22,16,40,26.20
2018,07,22,16,41,26.20
2018,07,22,16,42,26.10
2018,07,22,16,43,26.10
2018,07,22,16,44,26.10
2018,07,22,16,45,26.20
2018,07,22,16,46,26.20
2018,07,22,16,47,26.30
2018,07,22,16,48,26.40
2018,07,22,16,49,26.40
2018,07,22,16,50,26.40
2018,07,22,16,51,26.40
2018,07,22,16,52,26.40
2018,07,22,16,53,26.40
2018,07,22,16,54,26.40
2018,07,22,16,55,26.40
2018,07,22,16,56,26.40
2018,07,22,16,57,26.40
2018,07,22,16,58,26.40
2018,07,22,16,59,26.40
2018,07,22,17,00,26.50
2018,07,22,17,01,26.60
2018,07,22,17,02,26.60
2018,07,22,17,03,26.70
2018,07,22,17,04,26.70
2018,07,22,17,05,26.80
2018,07,22,17,06,26.80
2018,07,22,17,07,26.90
2018,07,22,17,08,27.00
2018,07,22,17,09,27.10
2018,07,22,17,10,27.10
2018,07,22,17,11,27.10
2018,07,22,17,12,27.10
2018,07,22,17,13,27.10
2018,07,22,17,14,27.10
2018,07,22,17,15,27.10
2018,07,22,17,16,27.20
2018,07,22,17,17,27.20
2018,07,22,17,18,27.20
2018,07,22,17,19,27.20